User: anonymous   Login
Location: Pleiades Observatory
(40.1297°N, 91.5238°W)
Time: 16:43:30
(UTC-05:00)
Language:

Cosmos 1842 Rocket - Orbit

View from above orbital plane
View from above orbital plane
View from above satellite
View from above satellite

Ground track
Ground track

The orbit data is extracted from the following two-line orbital elements,

1 17912U 87038B   16181.05762747  .00000081  00000-0  70492-5 0  9997
2 17912  82.5012  21.6768 0019187 316.8133  43.1576 14.82873109575399
Epoch (UTC): 29 June 2016 01:22:59
Eccentricity: 0.0019187
inclination: 82.5012°
perigee height: 607 km
apogee height: 634 km
right ascension of ascending node: 21.6768°
argument of perigee: 316.8133°
revolutions per day: 14.82873109
mean anomaly at epoch: 43.1576°
orbit number at epoch: 57539

The dashed part of the orbit path shows where the satellite is in the earth's shadow,  

DLR